This is the latest recevied weather packets stored in our database for station/object SR8WXE. If no packets are shown the sender has not sent any weather packets the latest 10 day(s).
| Time | Temp. | Humidity | Pressure | Rain* | Wind** | Luminosity | Snow |
|---|---|---|---|---|---|---|---|
| 1778336169 | 12.78° C | 63% | 1020.3 hPa | 0 mm | - | - | - |
| 1778335869 | 12.78° C | 63% | 1020.3 hPa | 0 mm | - | - | - |
| 1778335569 | 12.78° C | 64% | 1020.2 hPa | 0 mm | - | - | - |
| 1778335269 | 12.78° C | 63% | 1020.2 hPa | 0 mm | - | - | - |
| 1778334968 | 13.33° C | 62% | 1020.2 hPa | 0 mm | - | - | - |
| 1778334668 | 13.33° C | 60% | 1020.1 hPa | 0 mm | - | - | - |
| 1778334368 | 13.89° C | 58% | 1020.1 hPa | 0 mm | - | - | - |
| 1778334068 | 13.89° C | 55% | 1020.1 hPa | 0 mm | - | - | - |
| 1778333767 | 14.44° C | 55% | 1020 hPa | 0 mm | - | - | - |
| 1778333467 | 14.44° C | 55% | 1020.1 hPa | 0 mm | - | - | - |
| 1778333167 | 14.44° C | 55% | 1020.1 hPa | 0 mm | - | - | - |
| 1778332866 | 14.44° C | 57% | 1020.1 hPa | 0 mm | - | - | - |
| 1778332566 | 13.89° C | 55% | 1020.2 hPa | 0 mm | - | - | - |
| 1778332266 | 13.89° C | 56% | 1020.2 hPa | 0 mm | - | - | - |
| 1778331965 | 13.89° C | 56% | 1020.2 hPa | 0 mm | - | - | - |
| 1778331665 | 13.89° C | 56% | 1020.3 hPa | 0 mm | - | - | - |
| 1778331365 | 13.89° C | 56% | 1020.3 hPa | 0 mm | - | - | - |
| 1778331065 | 13.89° C | 56% | 1020.3 hPa | 0 mm | - | - | - |
| 1778330764 | 13.89° C | 58% | 1020.2 hPa | 0 mm | - | - | - |
| 1778330464 | 13.89° C | 57% | 1020.2 hPa | 0 mm | - | - | - |
| 1778330164 | 13.89° C | 56% | 1020.2 hPa | 0 mm | - | - | - |
| 1778329864 | 13.89° C | 56% | 1020.3 hPa | 0 mm | - | - | - |
| 1778329563 | 13.33° C | 57% | 1020.2 hPa | 0 mm | - | - | - |
| 1778329263 | 13.33° C | 57% | 1020.3 hPa | 0 mm | - | - | - |
| 1778328963 | 13.33° C | 57% | 1020.4 hPa | 0 mm | - | - | - |
* Rain latest hour (hover to see other rain measurements)
** Current wind speed in m/s (hover to see current wind gust speed)